Time,TemperatureF,DewpointF,PressureIn,WindDirection,WindDirectionDegrees,WindSpeedMPH,WindSpeedGustMPH,Humidity,HourlyPrecipIn,Conditions,Clouds,dailyrainin,SolarRadiationWatts/m^2,SoftwareType,DateUTC
2013-06-05 00:03:00,52.0,44.0,-100.00,SSW,202,2.0,5.0,73,0.00,,,0.01,0.000000,,2013-06-05 04:03:00,
2013-06-05 00:13:00,52.0,44.0,-100.00,SSW,202,2.0,5.0,73,0.00,,,0.01,0.000000,,2013-06-05 04:13:00,
2013-06-05 00:23:00,52.0,44.0,-100.00,SSW,202,2.0,5.0,73,0.00,,,0.01,0.000000,,2013-06-05 04:23:00,
2013-06-05 00:33:00,52.0,44.0,-100.00,SSW,202,2.0,5.0,73,0.00,,,0.01,0.000000,,2013-06-05 04:33:00,
2013-06-05 00:53:00,52.0,44.0,-100.00,SW,215,3.0,5.0,74,0.00,,,0.01,0.000000,,2013-06-05 04:53:00,
2013-06-05 01:02:00,52.0,44.0,-100.00,SW,215,3.0,5.0,74,0.00,,,0.01,0.000000,,2013-06-05 05:02:00,
2013-06-05 01:12:00,52.0,44.0,-100.00,SW,215,3.0,5.0,74,0.00,,,0.01,0.000000,,2013-06-05 05:12:00,
2013-06-05 01:23:00,52.0,44.0,-100.00,SW,215,3.0,5.0,74,0.00,,,0.01,0.000000,,2013-06-05 05:23:00,
2013-06-05 01:32:00,52.0,44.0,-100.00,SW,215,3.0,5.0,74,0.00,,,0.01,0.000000,,2013-06-05 05:32:00,
2013-06-05 01:53:00,53.0,43.0,-100.00,SW,230,2.0,7.0,68,0.00,,,0.01,0.000000,,2013-06-05 05:53:00,
2013-06-05 02:02:00,53.0,43.0,-100.00,SW,230,2.0,7.0,68,0.00,,,0.01,0.000000,,2013-06-05 06:02:00,
2013-06-05 02:12:00,53.0,43.0,-100.00,SW,230,2.0,7.0,68,0.00,,,0.01,0.000000,,2013-06-05 06:12:00,
2013-06-05 02:22:00,53.0,43.0,-100.00,SW,230,2.0,7.0,68,0.00,,,0.01,0.000000,,2013-06-05 06:22:00,
2013-06-05 02:32:00,53.0,43.0,-100.00,SW,230,2.0,7.0,68,0.00,,,0.01,0.000000,,2013-06-05 06:32:00,
2013-06-05 02:52:00,54.0,44.0,-100.00,WNW,297,3.0,9.0,68,0.00,,,0.01,0.000000,,2013-06-05 06:52:00,
2013-06-05 03:02:00,54.0,44.0,-100.00,WNW,297,3.0,9.0,68,0.00,,,0.01,0.000000,,2013-06-05 07:02:00,
2013-06-05 03:12:00,54.0,44.0,-100.00,WNW,297,3.0,9.0,68,0.00,,,0.01,0.000000,,2013-06-05 07:12:00,
2013-06-05 03:22:00,54.0,44.0,-100.00,WNW,297,3.0,9.0,68,0.00,,,0.01,0.000000,,2013-06-05 07:22:00,
2013-06-05 03:32:00,54.0,44.0,-100.00,WNW,297,3.0,9.0,68,0.00,,,0.01,0.000000,,2013-06-05 07:32:00,
2013-06-05 04:02:00,53.0,44.0,-100.00,SW,229,2.0,8.0,71,0.00,,,0.01,0.000000,,2013-06-05 08:02:00,
2013-06-05 04:12:00,53.0,44.0,-100.00,SW,229,2.0,8.0,71,0.00,,,0.01,0.000000,,2013-06-05 08:12:00,
2013-06-05 04:22:00,53.0,44.0,-100.00,SW,229,2.0,8.0,71,0.00,,,0.01,0.000000,,2013-06-05 08:22:00,
2013-06-05 04:32:00,53.0,44.0,-100.00,SW,229,2.0,8.0,71,0.00,,,0.01,0.000000,,2013-06-05 08:32:00,
2013-06-05 04:52:00,48.0,44.0,-100.00,SW,230,2.0,5.0,86,0.00,,,0.01,0.000000,,2013-06-05 08:52:00,
2013-06-05 05:02:00,48.0,44.0,-100.00,SW,230,2.0,5.0,86,0.00,,,0.01,0.000000,,2013-06-05 09:02:00,
2013-06-05 05:12:00,48.0,44.0,-100.00,SW,230,2.0,5.0,86,0.00,,,0.01,0.000000,,2013-06-05 09:12:00,
2013-06-05 05:22:00,48.0,44.0,-100.00,SW,230,2.0,5.0,86,0.00,,,0.01,0.000000,,2013-06-05 09:22:00,
2013-06-05 05:33:00,48.0,44.0,-100.00,SW,230,2.0,5.0,86,0.00,,,0.01,0.000000,,2013-06-05 09:33:00,
2013-06-05 05:53:00,50.0,44.0,-100.00,West,274,2.0,5.0,79,0.00,,,0.01,10.000000,,2013-06-05 09:53:00,
2013-06-05 06:03:00,50.0,44.0,-100.00,West,274,2.0,5.0,79,0.00,,,0.01,10.000000,,2013-06-05 10:03:00,
2013-06-05 06:13:00,50.0,44.0,-100.00,West,274,2.0,5.0,79,0.00,,,0.01,10.000000,,2013-06-05 10:13:00,
2013-06-05 06:22:00,50.0,44.0,-100.00,West,274,2.0,5.0,79,0.00,,,0.01,10.000000,,2013-06-05 10:22:00,
2013-06-05 06:33:00,50.0,44.0,-100.00,West,274,2.0,5.0,79,0.00,,,0.01,10.000000,,2013-06-05 10:33:00,
2013-06-05 07:02:00,55.0,44.0,-100.00,NNW,339,5.0,13.0,67,0.00,,,0.00,49.000000,,2013-06-05 11:02:00,
2013-06-05 07:13:00,55.0,44.0,-100.00,NNW,339,5.0,13.0,67,0.00,,,0.00,49.000000,,2013-06-05 11:13:00,
2013-06-05 07:22:00,55.0,44.0,-100.00,NNW,339,5.0,13.0,67,0.00,,,0.00,49.000000,,2013-06-05 11:22:00,
2013-06-05 07:33:00,55.0,44.0,-100.00,NNW,339,5.0,13.0,67,0.00,,,0.00,49.000000,,2013-06-05 11:33:00,
2013-06-05 07:52:00,59.0,45.0,-100.00,NNW,333,4.0,10.0,60,0.00,,,0.00,269.000000,,2013-06-05 11:52:00,
2013-06-05 08:02:00,59.0,45.0,-100.00,NNW,333,4.0,10.0,60,0.00,,,0.00,269.000000,,2013-06-05 12:02:00,
2013-06-05 08:12:00,59.0,45.0,-100.00,NNW,333,4.0,10.0,60,0.00,,,0.00,269.000000,,2013-06-05 12:12:00,
2013-06-05 08:22:00,59.0,45.0,-100.00,NNW,333,4.0,10.0,60,0.00,,,0.00,269.000000,,2013-06-05 12:22:00,
2013-06-05 08:32:00,59.0,45.0,-100.00,NNW,333,4.0,10.0,60,0.00,,,0.00,269.000000,,2013-06-05 12:32:00,
2013-06-05 08:52:00,60.0,45.0,-100.00,NNW,330,4.0,12.0,57,0.00,,,0.00,530.000000,,2013-06-05 12:52:00,
2013-06-05 09:02:00,60.0,45.0,-100.00,NNW,330,4.0,12.0,57,0.00,,,0.00,530.000000,,2013-06-05 13:02:00,
2013-06-05 09:12:00,60.0,45.0,-100.00,NNW,330,4.0,12.0,57,0.00,,,0.00,530.000000,,2013-06-05 13:12:00,
2013-06-05 09:22:00,60.0,45.0,-100.00,NNW,330,4.0,12.0,57,0.00,,,0.00,530.000000,,2013-06-05 13:22:00,
2013-06-05 09:33:00,60.0,45.0,-100.00,NNW,330,4.0,12.0,57,0.00,,,0.00,530.000000,,2013-06-05 13:33:00,
2013-06-05 09:53:00,62.0,45.0,-100.00,NW,322,5.0,9.0,53,0.00,,,0.00,721.000000,,2013-06-05 13:53:00,
2013-06-05 10:02:00,62.0,45.0,-100.00,NW,322,5.0,9.0,53,0.00,,,0.00,721.000000,,2013-06-05 14:02:00,
2013-06-05 10:12:00,62.0,45.0,-100.00,NW,322,5.0,9.0,53,0.00,,,0.00,721.000000,,2013-06-05 14:12:00,
2013-06-05 10:22:00,62.0,45.0,-100.00,NW,322,5.0,9.0,53,0.00,,,0.00,721.000000,,2013-06-05 14:22:00,
2013-06-05 10:32:00,62.0,45.0,-100.00,NW,322,5.0,9.0,53,0.00,,,0.00,721.000000,,2013-06-05 14:32:00,
2013-06-05 11:03:00,64.0,44.0,-100.00,NNW,328,4.0,9.0,49,0.00,,,0.00,886.000000,,2013-06-05 15:03:00,
2013-06-05 11:53:00,66.0,42.0,-100.00,NNW,338,3.0,9.0,42,0.00,,,0.00,1005.000000,,2013-06-05 15:53:00,
2013-06-05 12:04:00,66.0,42.0,-100.00,NNW,338,3.0,9.0,42,0.00,,,0.00,1005.000000,,2013-06-05 16:04:00,
2013-06-05 12:54:00,-999.0,-99.9,-100.00,North,-999,3.0,-999.0,-999,0.00,,,0.00,,,2013-06-05 16:54:00,
2013-06-05 13:03:00,-999.0,-99.9,-100.00,North,-999,3.0,-999.0,-999,0.00,,,0.00,,,2013-06-05 17:03:00,
2013-06-05 13:13:00,-999.0,-99.9,-100.00,North,-999,3.0,-999.0,-999,0.00,,,0.00,,,2013-06-05 17:13:00,
2013-06-05 13:23:00,-999.0,-99.9,-100.00,North,-999,3.0,-999.0,-999,0.00,,,0.00,,,2013-06-05 17:23:00,
2013-06-05 13:33:00,-999.0,-99.9,-100.00,North,-999,3.0,-999.0,-999,0.00,,,0.00,,,2013-06-05 17:33:00,
2013-06-05 13:52:00,66.0,43.0,-100.00,WSW,237,5.0,11.0,44,0.00,,,0.00,1077.000000,,2013-06-05 17:52:00,
2013-06-05 14:02:00,66.0,43.0,-100.00,WSW,237,5.0,11.0,44,0.00,,,0.00,1077.000000,,2013-06-05 18:02:00,
2013-06-05 14:13:00,66.0,43.0,-100.00,WSW,237,5.0,11.0,44,0.00,,,0.00,1077.000000,,2013-06-05 18:13:00,
2013-06-05 14:23:00,66.0,43.0,-100.00,WSW,237,5.0,11.0,44,0.00,,,0.00,1077.000000,,2013-06-05 18:23:00,
2013-06-05 14:32:00,66.0,43.0,-100.00,WSW,237,5.0,11.0,44,0.00,,,0.00,1077.000000,,2013-06-05 18:32:00,
2013-06-05 14:52:00,64.0,44.0,-100.00,SW,231,6.0,15.0,49,-99.99,,,0.00,1024.000000,,2013-06-05 18:52:00,
2013-06-05 15:03:00,64.0,44.0,-100.00,SW,231,6.0,15.0,49,-99.99,,,0.00,1024.000000,,2013-06-05 19:03:00,
2013-06-05 15:13:00,64.0,44.0,-100.00,SW,231,6.0,15.0,49,-99.99,,,0.00,1024.000000,,2013-06-05 19:13:00,
2013-06-05 15:23:00,64.0,44.0,-100.00,SW,231,6.0,15.0,49,-99.99,,,0.00,1024.000000,,2013-06-05 19:23:00,
2013-06-05 15:32:00,64.0,44.0,-100.00,SW,231,6.0,15.0,49,-99.99,,,0.00,1024.000000,,2013-06-05 19:32:00,
2013-06-05 15:53:00,65.0,43.0,-100.00,SW,223,7.0,16.0,45,0.00,,,0.00,918.000000,,2013-06-05 19:53:00,
2013-06-05 16:03:00,65.0,43.0,-100.00,SW,223,7.0,16.0,45,0.00,,,0.00,918.000000,,2013-06-05 20:03:00,
2013-06-05 16:12:00,65.0,43.0,-100.00,SW,223,7.0,16.0,45,0.00,,,0.00,918.000000,,2013-06-05 20:12:00,
2013-06-05 16:23:00,65.0,43.0,-100.00,SW,223,7.0,16.0,45,0.00,,,0.00,918.000000,,2013-06-05 20:23:00,
2013-06-05 16:32:00,65.0,43.0,-100.00,SW,223,7.0,16.0,45,0.00,,,0.00,918.000000,,2013-06-05 20:32:00,
2013-06-05 16:52:00,63.0,42.0,-100.00,SW,229,8.0,16.0,47,0.00,,,0.00,762.000000,,2013-06-05 20:52:00,
2013-06-05 17:02:00,63.0,42.0,-100.00,SW,229,8.0,16.0,47,0.00,,,0.00,762.000000,,2013-06-05 21:02:00,
2013-06-05 17:12:00,63.0,42.0,-100.00,SW,229,8.0,16.0,47,0.00,,,0.00,762.000000,,2013-06-05 21:12:00,
2013-06-05 17:22:00,63.0,42.0,-100.00,SW,229,8.0,16.0,47,0.00,,,0.00,762.000000,,2013-06-05 21:22:00,
2013-06-05 17:33:00,63.0,42.0,-100.00,SW,229,8.0,16.0,47,0.00,,,0.00,762.000000,,2013-06-05 21:33:00,
2013-06-05 17:53:00,61.0,44.0,-100.00,SW,220,8.0,17.0,54,0.00,,,0.00,575.000000,,2013-06-05 21:53:00,
2013-06-05 18:03:00,61.0,44.0,-100.00,SW,220,8.0,17.0,54,0.00,,,0.00,575.000000,,2013-06-05 22:03:00,
2013-06-05 18:13:00,61.0,44.0,-100.00,SW,220,8.0,17.0,54,0.00,,,0.00,575.000000,,2013-06-05 22:13:00,
2013-06-05 18:22:00,61.0,44.0,-100.00,SW,220,8.0,17.0,54,0.00,,,0.00,575.000000,,2013-06-05 22:22:00,
2013-06-05 18:33:00,61.0,44.0,-100.00,SW,220,8.0,17.0,54,0.00,,,0.00,575.000000,,2013-06-05 22:33:00,
2013-06-05 18:53:00,56.0,46.0,-100.00,SW,220,7.0,16.0,69,0.00,,,0.00,259.000000,,2013-06-05 22:53:00,
2013-06-05 19:02:00,56.0,46.0,-100.00,SW,220,7.0,16.0,69,0.00,,,0.00,259.000000,,2013-06-05 23:02:00,
2013-06-05 19:12:00,56.0,46.0,-100.00,SW,220,7.0,16.0,69,0.00,,,0.00,259.000000,,2013-06-05 23:12:00,
2013-06-05 19:22:00,56.0,46.0,-100.00,SW,220,7.0,16.0,69,0.00,,,0.00,259.000000,,2013-06-05 23:22:00,
2013-06-05 19:32:00,56.0,46.0,-100.00,SW,220,7.0,16.0,69,0.00,,,0.00,259.000000,,2013-06-05 23:32:00,
2013-06-05 19:53:00,55.0,47.0,-100.00,SW,229,7.0,15.0,75,0.00,,,0.00,65.000000,,2013-06-05 23:53:00,
2013-06-05 20:02:00,55.0,47.0,-100.00,SW,229,7.0,15.0,75,0.00,,,0.00,65.000000,,2013-06-06 00:02:00,
2013-06-05 20:12:00,55.0,47.0,-100.00,SW,229,7.0,15.0,75,0.00,,,0.00,65.000000,,2013-06-06 00:12:00,
2013-06-05 20:22:00,55.0,47.0,-100.00,SW,229,7.0,15.0,75,0.00,,,0.00,65.000000,,2013-06-06 00:22:00,
2013-06-05 20:32:00,55.0,47.0,-100.00,SW,229,7.0,15.0,75,0.00,,,0.00,65.000000,,2013-06-06 00:32:00,
2013-06-05 20:52:00,54.0,49.0,-100.00,SW,231,6.0,14.0,83,0.00,,,0.00,9.000000,,2013-06-06 00:52:00,
2013-06-05 21:02:00,54.0,49.0,-100.00,SW,231,6.0,14.0,83,0.00,,,0.00,9.000000,,2013-06-06 01:02:00,
2013-06-05 21:13:00,54.0,49.0,-100.00,SW,231,6.0,14.0,83,0.00,,,0.00,9.000000,,2013-06-06 01:13:00,
2013-06-05 21:22:00,54.0,49.0,-100.00,SW,231,6.0,14.0,83,0.00,,,0.00,9.000000,,2013-06-06 01:22:00,
2013-06-05 21:32:00,54.0,49.0,-100.00,SW,231,6.0,14.0,83,0.00,,,0.00,9.000000,,2013-06-06 01:32:00,
2013-06-05 21:53:00,54.0,50.0,-100.00,SW,225,7.0,13.0,85,0.00,,,0.00,0.000000,,2013-06-06 01:53:00,
2013-06-05 22:02:00,54.0,50.0,-100.00,SW,225,7.0,13.0,85,0.00,,,0.00,0.000000,,2013-06-06 02:02:00,
2013-06-05 22:12:00,54.0,50.0,-100.00,SW,225,7.0,13.0,85,0.00,,,0.00,0.000000,,2013-06-06 02:12:00,
2013-06-05 22:22:00,54.0,50.0,-100.00,SW,225,7.0,13.0,85,0.00,,,0.00,0.000000,,2013-06-06 02:22:00,
2013-06-05 22:32:00,54.0,50.0,-100.00,SW,225,7.0,13.0,85,0.00,,,0.00,0.000000,,2013-06-06 02:32:00,
2013-06-05 23:02:00,54.0,49.0,-100.00,SW,220,7.0,16.0,84,0.00,,,0.00,0.000000,,2013-06-06 03:02:00,
2013-06-05 23:12:00,54.0,49.0,-100.00,SW,220,7.0,16.0,84,0.00,,,0.00,0.000000,,2013-06-06 03:12:00,
2013-06-05 23:22:00,54.0,49.0,-100.00,SW,220,7.0,16.0,84,0.00,,,0.00,0.000000,,2013-06-06 03:22:00,
2013-06-05 23:33:00,54.0,49.0,-100.00,SW,220,7.0,16.0,84,0.00,,,0.00,0.000000,,2013-06-06 03:33:00,
2013-06-05 23:53:00,54.0,49.0,-100.00,SW,231,3.0,13.0,84,0.00,,,0.00,0.000000,,2013-06-06 03:53:00,